Regional Weather Roundup
Issued by NWS

Home | Current Version | Previous Version | Graphics & Text | Print | Product List | Glossary On
Versions: 1 2 3 4 5 6 7 8 9 10 11 12 13 14 15 16 17 18 19 20 21 22 23 24 25 26 27 28 29 30 31 32 33 34 35 36 37 38 39 40 41 42 43 44 45 46 47 48 49 50
000
ASUS45 KSLC 271010
RWRUT

UTAH REGIONAL WEATHER ROUNDUP
NATIONAL WEATHER SERVICE SALT LAKE CITY UT
400 AM MDT THU AUG 27 2015

UTZ001>011-023>025-271100-

NORTHERN UTAH

CITY           SKY/WX    TMP DP  RH WIND       PRES   REMARKS
BRIGHAM CITY     N/A     62  56  81 CALM      30.20S
HILL AFB         N/A     62  58  86 E10       30.22S
LOGAN          CLEAR     56  54  93 CALM      30.21S
OGDEN            N/A     63  57  81 NE6       30.20S
PROVO AIRPORT    N/A     61  55  82 CALM      30.23R
SALT LAKE CITY   N/A     65  56  72 S5        30.19R
VERNAL         CLOUDY    64  57  78 CALM      30.23S
WENDOVER         N/A     70  48  46 W6        30.20S
HEBER CITY     CLOUDY    55  54  94 CALM      30.30R
WEST JORDAN    CLEAR     64  57  77 SW6       30.22R

$$

UTZ012>022-026-027-271100-

SOUTHERN/CENTRAL UTAH

CITY           SKY/WX    TMP DP  RH WIND       PRES   REMARKS
BLANDING       CLOUDY    61  58  90 SE7       30.40S
BRYCE CANYON     N/A     50  47  89 W7        30.42S
CEDAR CITY       N/A     56  54  93 CALM      30.30R
DELTA            N/A     61  53  74 S3        30.24S
HANKSVILLE       N/A     63  61  94 CALM      30.24S
MILFORD          N/A     60  55  83 SW13      30.25F
MOAB/CYNLANDS  PTCLDY    62  61  96 CALM      30.21S
PRICE          CLOUDY    62  58  86 CALM      30.30R
ST GEORGE        N/A     72  57  60 N9        30.16R
KANAB            N/A     57  57 100 CALM      30.33S

$$

REGIONAL REPORTS     COLORADO/ARIZONA

CITY           SKY/WX    TMP DP  RH WIND       PRES   REMARKS
CRAIG, CO      CLOUDY    59  56  89 E5        30.29F
GRAND JUNCTION CLOUDY    62  61  96 E9        30.23S
RIFLE          CLOUDY    61  58  90 CALM      30.28R
MONTROSE       CLOUDY    60  58  92 CALM      30.30F
CORTEZ         CLOUDY    60  57  89 CALM      30.33F
PAGE, AZ         N/A     70  63  78 CALM      30.22R
GRAND CANYON     N/A     50  49  96 CALM      30.38S
KINGMAN          N/A     72  60  66 CALM      30.14F
FLAGSTAFF        N/A     50  50 100 N3        30.41S

$$

REGIONAL REPORTS    NEVADA/IDAHO/WYOMING

CITY           SKY/WX    TMP DP  RH WIND       PRES   REMARKS
LAS VEGAS, NV    N/A     84  56  38 NE7       30.03S
ELY              N/A     49  46  90 S5        30.35S
ELKO             N/A     60  44  55 SE3       30.23R
POCATELLO, ID  CLEAR     56  50  80 NW6       30.18R
BURLEY           N/A     58  48  69 S5        30.15R
EVANSTON, WY   CLOUDY    56  53  90 CALM      30.35F
ROCK SPRINGS   CLOUDY    57  54  89 CALM      30.30S
KEMMERER       CLOUDY    55  52  88 CALM      30.36R

$$


USA.gov is the U.S. government's official web portal to all federal, state and local government web resources and services.